Regional Weather Roundup
Issued by NWS

Home | Current Version | Previous Version | Graphics & Text | Print | Product List | Glossary On
Versions: 1 2 3 4 5 6 7 8 9 10 11 12 13 14 15 16 17 18 19 20 21 22 23 24 25 26 27 28 29 30 31 32 33 34 35 36 37 38 39 40 41 42 43 44 45 46 47 48 49 50
875
ASUS43 KMKX 041400
RWRWI

WISCONSIN REGIONAL WEATHER ROUNDUP
NATIONAL WEATHER SERVICE MILWAUKEE/SULLIVAN WI
900 AM CDT WED MAY 04 2016

NOTE: "FAIR" INDICATES FEW OR NO CLOUDS BELOW 12,000 FEET WITH NO
SIGNIFICANT WEATHER AND/OR OBSTRUCTIONS TO VISIBILITY.

WIZ001-002-006>008-014>016-023>028-041500-
NORTHWEST WISCONSIN

CITY           SKY/WX    TMP DP  RH WIND       PRES   REMARKS
SUPERIOR ARPT  SUNNY     50  33  51 N10G17    29.97S
ASHLAND        SUNNY     50  32  50 N13       29.94R
HAYWARD        SUNNY     47  30  51 N12G21    29.94R
SIREN          MOSUNNY   50  33  51 N12       29.96S
CUMBERLAND     SUNNY     46  32  57 N13G18    29.94S
RICE LAKE      SUNNY     48  33  55 NW9       29.95R
CHETEK         SUNNY     48  35  60 N8G21     29.93R
LADYSMITH      SUNNY     47  35  61 N13       29.92R
EAU CLAIRE     NOT AVBL
MENOMONIE      SUNNY     51  34  52 N12       29.94R
NEW RICHMOND   SUNNY     50  32  50 N10       29.97R
OSCEOLA        SUNNY     49  34  55 N9        30.01R
$$

WIZ003>005-009-010-017-018-041500-
NORTH CENTRAL WISCONSIN

CITY           SKY/WX    TMP DP  RH WIND       PRES   REMARKS
MANITOWISH WTR PTSUNNY   41  32  69 N10G23    29.87R
ARBOR VITAE    PTSUNNY   43  34  70 N22       29.86R
WOODRUFF       PTSUNNY   43  34  70 N22       29.86R
RHINELANDER    SUNNY     43  31  62 N14G24    29.85R
EAGLE RIVER    CLOUDY    39  30  70 N16G24    29.85R WCI  30
LAND O LAKES   CLOUDY    38  32  78 N12G20    29.86R WCI  31
PHILLIPS       MOSUNNY   44  33  66 N18G24    29.87S
TOMAHAWK       MOSUNNY   44  32  64 N13G20    29.85R
MEDFORD        MOSUNNY   44  36  71 N12       29.86R
MERRILL        MOSUNNY   45  34  65 N12G24    29.85R
$$

WIZ029-030-035-036-043>047-041500-
CENTRAL WISCONSIN

CITY           SKY/WX    TMP DP  RH WIND       PRES   REMARKS
WAUSAU         MOSUNNY   49  36  61 N12       29.82R
MOSINEE        PTSUNNY   45  39  81 N12G17    29.85R
MARSHFIELD     SUNNY     48  33  56 N17       29.85R
STEVENS POINT  CLOUDY    43  36  76 N8        29.84R
WAUPACA        PTSUNNY   48  38  67 NW12G17   29.81S
WAUTOMA        PTSUNNY   47  37  68 N16       29.82S
WISC RAPIDS    MOSUNNY   49  35  58 N12       29.86R
CAMP DOUGLAS   NOT AVBL
$$

WIZ011>013-019>022-031-037>040-048>050-041500-
NORTHEAST WISCONSIN

CITY           SKY/WX    TMP DP  RH WIND       PRES   REMARKS
ANTIGO         PTSUNNY   41  34  75 N17G26    29.82R
SHAWANO        CLOUDY    46  36  68 N10G16    29.81R
OCONTO         CLOUDY    44  34  68 N14G20    29.79R
STURGEON BAY   PTSUNNY   43  30  61 N21G30    29.80R
GREEN BAY      CLOUDY    45  35  68 N21       29.80R
MANITOWOC      NOT AVBL
APPLETON       PTSUNNY   45  34  65 N13G24    29.77S
CLINTONVILLE   CLOUDY    45  34  65 N14G20    29.81R
OSHKOSH        CLOUDY    45  36  70 N17       29.79R
$$

WIZ032>034-041-042-053>061-041500-
SOUTHWEST WISCONSIN

CITY           SKY/WX    TMP DP  RH WIND       PRES   REMARKS
LA CROSSE      SUNNY     52  37  56 NW14      29.91R
SPARTA         MOSUNNY   48  38  68 N13G18    29.90R
VIROQUA        SUNNY     47  38  69 N14       29.88R
BOSCOBEL       MOSUNNY   52  38  58 N13G18    29.88R
PRAIRIE DU CHI MOSUNNY   50  35  57 N13G18    29.89R
PLATTEVILLE    MOSUNNY   48  42  79 N17G24    29.84R
$$

WIZ056-057-062-063-064-067-068-041500-
SOUTH CENTRAL WISCONSIN

CITY           SKY/WX    TMP DP  RH WIND       PRES   REMARKS
REEDSBURG      MOSUNNY   46  37  72 N20G25    29.84S
BARABOO/DELLS  PTSUNNY   46  36  67 N14G22    29.83R
LONE ROCK      NOT AVBL
MINERAL POINT  PTSUNNY   48  41  76 N18G24    29.84R
MADISON        PTSUNNY   48  37  65 N21       29.81S
MIDDLETON      MOSUNNY   49  40  71 N17       29.82R
WATERTOWN      CLOUDY    45  38  76 N14G23    29.78S
MONROE         PTSUNNY   46  37  71 N18G24    29.80R
JANESVILLE     NOT AVBL
$$

WIZ051-052-058>065-066-070>072-041500-
SOUTHEAST WISCONSIN

CITY           SKY/WX    TMP DP  RH WIND       PRES   REMARKS
MILWAUKEE      PTSUNNY   46  36  68 NW21G26   29.75R
WAUKESHA       NOT AVBL
MILWAUKEE/TIMM CLOUDY    45  34  65 N18       29.77R
RACINE         CLOUDY    47  36  65 NW14      29.76R
BURLINGTON     CLOUDY    45  37  75 N13       29.76R
KENOSHA        PTSUNNY   46  37  71 N17G26    29.75R
FOND DU LAC    CLOUDY    45  37  73 N15G28    29.79R
SHEBOYGAN      CLOUDY    45  36  70 N18G26    29.76R
WEST BEND      CLOUDY    43  34  70 N18G25    29.77R
JUNEAU         CLOUDY    43  37  78 N14G22    29.80R
$$

LSZ147-162-041500-
LAKE SUPERIOR

STATION/POSITION TIME  TEMP    WIND        PRES    WAVE
                       AIR SEA DIR/SP/G            HT/PER
                 (UTC) (F)     (DEG/KT/KT) (MB)    (FT/S)
W MID LAKE BUOY  1250   39 37  360/ 10/ 12 1013.7R   1/ 5
DEVILS ISLAND    1300   41     350/ 13/ 14 1014.5R
SAXON HARBOR     1300   42     340/  6/  7 1012.9R
$$

LMZ867-665-643>646-041500-
LAKE MICHIGAN

STATION/POSITION TIME  TEMP    WIND        PRES    WAVE
                       AIR SEA DIR/SP/G            HT/PER
                 (UTC) (F)     (DEG/KT/KT) (MB)    (FT/S)
CHAMBERS ISLAND  1300   41     340/ 20/ 24 1008.8R
N MID LAKE BUOY  1250   39 38  330/ 19/ 23 1006.7R   4/ 5
NORTHPORT PIER   1301   40     340/ 21     1008.1R
ALGOMA LAKESHORE 1300           10/ 16/ 22   N/A
KEWAUNEE LAKESHO 1300   43     340/ 15/ 21 1006.8R
SHEBOYGAN LAKESH 1300   45     350/ 25/ 27 1007.5R
PORT WASHINGTON  1300   46     340/  9/ 18 1008.1
S MID LAKE BUOY  1250   41 40  350/ 23/ 27 1004.9R   6/ 5
KENOSHA   LAKESH 1300   46      10/ 21/ 24 1006.4R
$$

TC  - TEMPERATURE IN CELSIUS
VSB - VISIBILITY IN STATUTE MILES
WCI - WIND CHILL INDEX
HX  - HEAT INDEX





USA.gov is the U.S. government's official web portal to all federal, state and local government web resources and services.